#timestamp,LO_Frequency,Hit,StdDev 
1583528415.3,286046998.0,N
1583528435.1,286046996.7,N
1583528455.8,286046997.4,N
1583528475.7,286046999.3,N
1583528495.5,286047000.7,N
1583528515.4,286047000.3,N
1583528535.2,286046999.7,N
1583528555.0,286047001.6,N
1583528555.9,286047001.6,N
1583528575.8,286047002.2,N
1583528595.6,286047004.1,N
1583528615.4,286047004.4,N
1583528635.3,286046999.8,N
1583528655.1,286047000.8,N
1583528675.9,286046997.5,N
1583528695.7,286046995.7,N
1583528715.5,286046994.6,N
1583528735.4,286046993.7,N
1583528755.2,286046994.0,N
1583528775.1,286046993.8,N
1583528776.0,286046993.8,N
1583528795.8,286046997.8,N
1583528815.6,286046999.5,N
1583528835.5,286046998.5,N
1583528855.3,286047000.6,N
1583528875.1,286046999.7,N
1583528895.9,286047001.5,N
1583528915.7,286047003.6,N
1583528935.6,286047003.7,N
1583528955.4,286047004.2,N
1583528975.2,286047004.0,N
1583528995.1,286047001.3,N
1583528996.0,286047001.3,N
1583529015.8,286047000.7,N
1583529035.7,286046999.0,N
1583529055.5,286046998.7,N
1583529075.3,286046998.2,N
1583529095.2,286046999.9,N
1583529115.0,286047002.2,N
1583529115.9,286047002.2,N
1583529135.7,286047001.9,N
1583529155.6,286047004.0,N
1583529175.4,286047005.9,N
1583529195.3,286047004.6,N
1583529215.1,286047006.9,N
1583529235.8,286047006.2,N
1583529255.7,286047007.2,N
1583529275.5,286047005.4,N
1583529295.4,286047003.5,N
1583529315.2,286047003.3,N
1583529335.0,286047005.7,N
1583529335.9,286047005.7,N
1583529355.8,286047005.6,N
1583529375.6,286047003.2,N
1583529395.4,286047002.9,N
1583529415.3,286047007.2,N
1583529435.1,286047007.1,N
1583529455.9,286047004.6,N
1583529475.7,286047006.5,N
1583529495.5,286047009.1,Y
1583529515.4,286047003.7,P
1583529535.2,286047001.7,P
1583529555.1,286047001.6,N
1583529556.0,286047001.6,N
1583529575.8,286046999.7,N
1583529595.6,286046999.7,N
1583529615.5,286046999.0,N
1583529635.3,286047000.9,N
1583529655.1,286047001.1,N
1583529675.9,286047000.0,N
1583529695.7,286047001.4,N
1583529715.6,286047001.3,N
1583529735.4,286047004.1,Y
1583529755.2,286047001.5,P
1583529775.1,286047002.6,P
1583529776.0,286047002.6,P
1583529795.8,286047003.8,Y
1583529815.7,286047002.6,P
1583529835.5,286047001.9,P
1583529855.3,286047002.6,P
1583529875.2,286046999.9,N
1583529895.0,286047000.6,N
1583529895.9,286047000.6,N
1583529915.7,286047000.8,N
1583529935.6,286047000.8,N
1583529955.4,286046999.0,N
1583529975.3,286047011.9,Y
1583529995.1,286046998.0,P
1583530015.8,286046997.3,N
1583530035.7,286046998.7,N
1583530055.5,286047000.9,N
1583530075.4,286047000.7,N
1583530095.2,286047000.3,N
1583530115.0,286047000.3,N
1583530115.9,286047000.3,N
1583530135.8,286047000.9,N
1583530155.6,286046998.5,N
1583530175.4,286046999.4,N
1583530195.3,286046999.2,N
1583530215.1,286046999.3,N
1583530235.9,286046998.7,N
1583530255.7,286047000.7,N
1583530275.5,286046998.5,N
1583530295.4,286047001.0,N
1583530315.2,286046998.5,N
1583530335.1,286047000.8,N
1583530336.0,286047000.8,N
1583530355.8,286046999.8,N
1583530375.6,286047002.5,N
1583530395.5,286047002.4,N
1583530415.3,286047001.4,N
1583530435.2,286047004.3,Y
1583530455.9,286047000.6,P
1583530475.7,286047000.3,N
1583530495.6,286046997.5,P
1583530515.4,286046993.4,Y
1583530535.2,286046991.8,P
1583530555.1,286046991.9,N
1583530556.0,286046991.9,N
1583530575.8,286046993.8,N
1583530595.7,286046994.2,N
1583530615.5,286046994.9,N
1583530635.3,286046996.2,N
1583530655.2,286046997.2,N
1583530675.0,286046998.9,N
1583530675.9,286046998.9,N
1583530695.8,286046998.2,N
1583530715.6,286046999.0,N
1583530735.4,286046999.7,N
1583530755.3,286046999.9,N
1583530775.1,286046998.7,N
1583530795.8,286046999.4,N
1583530815.7,286046996.7,N
1583530835.5,286046995.9,N
1583530855.4,286046996.3,N
1583530875.2,286046993.3,N
1583530895.0,286046994.4,N
1583530895.9,286046994.4,N
1583530915.8,286046994.5,N
1583530935.6,286046996.1,N
1583530955.5,286046997.5,N
1583530975.3,286046995.0,N
1583530995.1,286046999.5,N
1583531015.9,286046998.6,N
1583531035.7,286046998.1,N
1583531055.5,286047002.3,N
1583531075.4,286046999.7,N
1583531095.2,286047000.7,N
1583531115.1,286046997.2,N
1583531116.0,286046997.2,N
1583531135.8,286046995.1,N
1583531155.6,286046992.1,Y
1583531175.5,286046994.4,P
1583531195.3,286046994.2,P
1583531215.2,286046994.6,P
1583531235.9,286046993.3,Y
1583531255.7,286047001.2,P
1583531275.6,286047000.1,N
1583531295.4,286047002.7,N
1583531315.2,286047001.3,N
1583531335.1,286047005.3,N
1583531336.0,286047005.3,N
1583531355.8,286047004.5,N
1583531375.7,286047003.3,N
1583531395.5,286047003.8,N
1583531415.3,286047001.5,N
1583531435.2,286046998.4,N
1583531455.0,286046997.5,N
1583531455.9,286046997.5,N
1583531475.8,286046996.4,N
1583531495.6,286046995.9,N
1583531515.4,286046995.2,N
1583531535.3,286046995.0,N
1583531555.1,286046996.9,N
1583531575.8,286046999.2,N
1583531595.7,286047000.3,N
1583531615.5,286047002.7,N
1583531635.4,286047004.1,N
1583531655.2,286047002.9,N
1583531675.0,286047005.1,N
1583531675.9,286047005.1,N
1583531695.8,286047003.8,N
1583531715.6,286047004.2,N
1583531735.4,286047003.4,N
1583531755.3,286047003.4,N
1583531775.1,286047004.2,N
1583531795.9,286047004.1,N
1583531815.7,286047003.1,N
1583531835.5,286047004.7,N
1583531855.4,286047004.9,N
1583531875.2,286047007.6,N
1583531895.0,286047006.1,N
1583531896.0,286047006.1,N
1583531915.8,286047007.2,N
1583531935.6,286047006.2,N
1583531955.5,286047008.6,N
1583531975.3,286047008.9,N
1583531995.1,286047008.8,N
